When you browse on this site, cookies collect data to enhance your experience and personalize the content and advertising you see.
Visit our Privacy Policy to learn more. By continuing to use the site, you agree to this use of cookies and data.
  • In Hungary
  • List of Countries
  • For 7 days
  • Water Temperature
  • Weather Map
  • News
  • Weather Widgets
  • user-avatar
    Login

    Hourly Weather Gleboka

    Today, 29 March, Sunday

    Time Temperature Precipitation Wind Pressure Humidity
    00:00 +6°C° 0 mm 2 mps 737 mmHg 82%
    01:00 +6°C° 0 mm 2 mps 737 mmHg 88%
    02:00 +6°C° 0 mm 2 mps 736 mmHg 88%
    03:00 +6°C° 0 mm 2 mps 736 mmHg 88%
    04:00 +5°C° 0 mm 2 mps 736 mmHg 87%
    05:00 +4°C° 0 mm 3 mps 736 mmHg 83%
    06:00 +4°C° 0 mm 4 mps 736 mmHg 79%
    07:00 +4°C° 0 mm 4 mps 737 mmHg 72%
    08:00 +5°C° 0 mm 4 mps 737 mmHg 69%
    09:00 +5°C° 0 mm 4 mps 737 mmHg 66%
    10:00 +6°C° 0 mm 5 mps 738 mmHg 63%
    11:00 +7°C° 0 mm 5 mps 738 mmHg 63%
    12:00 +7°C° 0 mm 5 mps 738 mmHg 63%
    13:00 +6°C° 0 mm 5 mps 738 mmHg 68%
    14:00 +5°C° 0.1 mm 5 mps 738 mmHg 74%
    15:00 +3°C° 0.1 mm 5 mps 738 mmHg 81%
    16:00 +2°C° 0.1 mm 5 mps 738 mmHg 87%
    17:00 +2°C° 0.2 mm 5 mps 739 mmHg 90%
    18:00 +1°C° 0.2 mm 6 mps 740 mmHg 92%
    19:00 -1°C° 0.2 mm 6 mps 740 mmHg 94%
    20:00 -2°C° 0.4 mm 6 mps 741 mmHg 91%
    21:00 -3°C° 0.4 mm 6 mps 741 mmHg 88%
    22:00 -3°C° 0.4 mm 6 mps 742 mmHg 84%
    23:00 -4°C° 0.1 mm 6 mps 742 mmHg 83%

    Tomorrow, 30 March, Monday

    Time Temperature Precipitation Wind Pressure Humidity
    00:00 -5°C° 0.1 mm 5 mps 743 mmHg 82%
    01:00 -6°C° 0.1 mm 5 mps 743 mmHg 81%
    02:00 -6°C° 0.1 mm 5 mps 743 mmHg 81%
    03:00 -7°C° 0.1 mm 4 mps 743 mmHg 81%
    04:00 -7°C° 0.1 mm 4 mps 743 mmHg 82%
    05:00 -7°C° 0.1 mm 4 mps 744 mmHg 78%
    06:00 -5°C° 0.1 mm 4 mps 744 mmHg 74%
    07:00 -6°C° 0.1 mm 5 mps 744 mmHg 71%
    08:00 -4°C° 0 mm 4 mps 744 mmHg 63%
    09:00 -3°C° 0 mm 4 mps 744 mmHg 55%
    10:00 -2°C° 0 mm 4 mps 744 mmHg 48%
    11:00 -1°C° 0 mm 4 mps 744 mmHg 45%
    12:00 0°C° 0 mm 4 mps 744 mmHg 42%
    13:00 +1°C° 0 mm 4 mps 744 mmHg 39%
    14:00 +1°C° 0 mm 4 mps 743 mmHg 40%
    15:00 +2°C° 0 mm 3 mps 743 mmHg 42%
    16:00 +2°C° 0 mm 3 mps 742 mmHg 43%
    17:00 +2°C° 0 mm 2 mps 743 mmHg 50%
    18:00 +1°C° 0 mm 2 mps 743 mmHg 58%
    19:00 0°C° 0 mm 1 mps 743 mmHg 65%
    20:00 -2°C° 0 mm 2 mps 743 mmHg 66%
    21:00 -2°C° 0 mm 2 mps 743 mmHg 68%
    22:00 -2°C° 0 mm 2 mps 743 mmHg 69%
    23:00 -2°C° 0 mm 2 mps 743 mmHg 69%

    Day after tomorrow, 31 March, Tuesday

    Time Temperature Precipitation Wind Pressure Humidity
    00:00 -2°C° 0 mm 2 mps 743 mmHg 68%
    01:00 -2°C° 0 mm 2 mps 743 mmHg 67%
    02:00 -2°C° 0.4 mm 3 mps 743 mmHg 75%
    03:00 -4°C° 0.4 mm 4 mps 743 mmHg 82%
    04:00 -4°C° 0.4 mm 4 mps 743 mmHg 90%
    05:00 -4°C° 0.1 mm 4 mps 744 mmHg 88%
    06:00 -4°C° 0.1 mm 4 mps 744 mmHg 86%
    07:00 -5°C° 0.1 mm 4 mps 744 mmHg 84%
    08:00 -4°C° 0 mm 4 mps 745 mmHg 76%
    09:00 -3°C° 0 mm 4 mps 745 mmHg 69%
    10:00 -2°C° 0 mm 4 mps 745 mmHg 61%
    11:00 -1°C° 0.1 mm 4 mps 745 mmHg 60%
    12:00 0°C° 0.1 mm 4 mps 745 mmHg 59%
    13:00 0°C° 0.1 mm 4 mps 745 mmHg 58%
    14:00 0°C° 0.2 mm 4 mps 745 mmHg 59%
    15:00 +1°C° 0.2 mm 4 mps 745 mmHg 60%
    16:00 +1°C° 0.2 mm 4 mps 745 mmHg 61%
    17:00 0°C° 0.1 mm 3 mps 745 mmHg 68%
    18:00 -1°C° 0.1 mm 2 mps 745 mmHg 74%
    19:00 -2°C° 0.1 mm 2 mps 745 mmHg 81%
    20:00 -3°C° 0 mm 2 mps 745 mmHg 81%
    21:00 -1°C° 0 mm 1 mps 745 mmHg 82%
    22:00 -1°C° 0 mm 1 mps 745 mmHg 83%
    23:00 -2°C° 0 mm 1 mps 745 mmHg 82%

    1 April, Wednesday

    Time Temperature Precipitation Wind Pressure Humidity
    00:00 -2°C° 0 mm 1 mps 745 mmHg 81%
    01:00 -2°C° 0 mm 1 mps 745 mmHg 80%
    02:00 -2°C° 0 mm 1 mps 745 mmHg 79%
    03:00 -2°C° 0 mm 1 mps 744 mmHg 79%
    04:00 -4°C° 0 mm 2 mps 744 mmHg 78%
    05:00 -3°C° 0 mm 2 mps 744 mmHg 74%
    06:00 -3°C° 0 mm 2 mps 744 mmHg 71%
    07:00 -2°C° 0 mm 3 mps 744 mmHg 68%
    08:00 0°C° 0 mm 3 mps 743 mmHg 61%
    09:00 +1°C° 0 mm 3 mps 743 mmHg 54%
    10:00 +3°C° 0 mm 4 mps 742 mmHg 47%
    11:00 +4°C° 0 mm 4 mps 742 mmHg 46%
    12:00 +4°C° 0 mm 4 mps 741 mmHg 44%
    13:00 +5°C° 0 mm 4 mps 741 mmHg 42%
    14:00 +5°C° 0 mm 4 mps 740 mmHg 43%
    15:00 +6°C° 0 mm 4 mps 740 mmHg 44%
    16:00 +6°C° 0 mm 4 mps 739 mmHg 45%
    17:00 +4°C° 0 mm 3 mps 739 mmHg 51%
    18:00 +2°C° 0 mm 3 mps 739 mmHg 58%
    19:00 +1°C° 0 mm 2 mps 739 mmHg 64%
    20:00 +1°C° 0 mm 2 mps 738 mmHg 65%
    21:00 -1°C° 0 mm 2 mps 738 mmHg 65%
    22:00 -1°C° 0 mm 2 mps 738 mmHg 66%
    23:00 -1°C° 0 mm 2 mps 738 mmHg 66%

    2 April, Thursday

    Time Temperature Precipitation Wind Pressure Humidity
    00:00 -2°C° 0 mm 2 mps 738 mmHg 67%
    01:00 -2°C° 0 mm 2 mps 737 mmHg 68%
    02:00 -2°C° 0 mm 2 mps 737 mmHg 68%
    03:00 -2°C° 0 mm 2 mps 737 mmHg 68%
    04:00 -2°C° 0 mm 3 mps 736 mmHg 67%
    05:00 -1°C° 0 mm 3 mps 736 mmHg 65%
    06:00 0°C° 0 mm 3 mps 737 mmHg 62%
    07:00 +1°C° 0 mm 3 mps 737 mmHg 60%
    08:00 +2°C° 0 mm 3 mps 736 mmHg 58%
    09:00 +4°C° 0 mm 4 mps 736 mmHg 56%
    10:00 +6°C° 0 mm 4 mps 736 mmHg 54%
    11:00 +6°C° 0 mm 4 mps 736 mmHg 54%
    12:00 +7°C° 0 mm 4 mps 735 mmHg 53%
    13:00 +7°C° 0 mm 5 mps 735 mmHg 53%
    14:00 +7°C° 0 mm 4 mps 735 mmHg 54%
    15:00 +7°C° 0 mm 4 mps 734 mmHg 55%
    16:00 +7°C° 0 mm 4 mps 734 mmHg 56%
    17:00 +5°C° 0 mm 3 mps 734 mmHg 63%
    18:00 +4°C° 0 mm 3 mps 733 mmHg 70%
    19:00 +3°C° 0 mm 2 mps 733 mmHg 76%
    20:00 +2°C° 0 mm 2 mps 733 mmHg 77%
    21:00 +2°C° 0 mm 2 mps 733 mmHg 77%
    22:00 +2°C° 0 mm 2 mps 733 mmHg 78%
    23:00 +1°C° 0 mm 2 mps 733 mmHg 78%

    3 April, Friday

    Time Temperature Precipitation Wind Pressure Humidity
    00:00 0°C° 0 mm 3 mps 733 mmHg 78%
    01:00 0°C° 0 mm 3 mps 732 mmHg 79%
    02:00 0°C° 0 mm 3 mps 732 mmHg 79%
    03:00 0°C° 0 mm 3 mps 732 mmHg 80%
    04:00 0°C° 0 mm 3 mps 731 mmHg 80%
    05:00 0°C° 0 mm 4 mps 731 mmHg 79%
    06:00 +1°C° 0 mm 4 mps 732 mmHg 77%
    07:00 +1°C° 0 mm 5 mps 732 mmHg 75%
    08:00 +3°C° 0 mm 5 mps 732 mmHg 73%
    09:00 +4°C° 0 mm 6 mps 732 mmHg 70%
    10:00 +5°C° 0 mm 7 mps 732 mmHg 67%
    11:00 +5°C° 0.1 mm 7 mps 732 mmHg 69%
    12:00 +5°C° 0.1 mm 7 mps 733 mmHg 70%
    13:00 +5°C° 0.1 mm 7 mps 733 mmHg 72%
    14:00 +5°C° 0.2 mm 7 mps 733 mmHg 70%
    15:00 +5°C° 0.2 mm 6 mps 733 mmHg 69%
    16:00 +5°C° 0.2 mm 6 mps 734 mmHg 68%
    17:00 +3°C° 0.1 mm 6 mps 734 mmHg 72%
    18:00 +2°C° 0.1 mm 5 mps 735 mmHg 76%
    19:00 +1°C° 0.1 mm 4 mps 735 mmHg 80%
    20:00 0°C° 0 mm 4 mps 736 mmHg 79%
    21:00 0°C° 0 mm 4 mps 737 mmHg 78%
    22:00 -1°C° 0 mm 4 mps 738 mmHg 77%
    23:00 -1°C° 0 mm 4 mps 738 mmHg 76%
    Show more